Regional Weather Roundup
Issued by NWS Newport/Morehead, NC

Current Version | Previous Version | Graphics & Text | Print | Product List | Glossary Off
Versions: 1 2 3 4 5 6 7 8 9 10 11 12 13 14 15 16 17 18 19 20 21 22 23 24 25 26 27 28 29 30 31 32 33 34 35 36 37 38 39 40 41 42 43 44 45 46 47 48 49 50

394
ASUS42 KMHX 061925
RWRMHX
WEATHER ROUNDUP FOR EASTERN NORTH CAROLINA
NATIONAL WEATHER SERVICE NEWPORT/MOREHEAD CITY NC
300 PM EDT FRI MAY 06 2016

NOTE: "FAIR" INDICATES FEW OR NO CLOUDS BELOW 12,000 FEET
WITH NO SIGNIFICANT WEATHER AND/OR OBSTRUCTIONS TO VISIBILITY

NCZ015>017-031-032-045>047-102-103-062000-
NORTH COAST

CITY           SKY/WX    TMP DP  RH WIND       PRES   REMARKS
EDENTON        MOSUNNY   63  53  70 W7        29.72S
ELIZABETH CITY CLOUDY    59  52  77 VRB5      29.70F
KITTY HAWK     CLOUDY    59  53  79 NE3       29.70R
MANTEO         CLOUDY    58  53  83 NW8       29.71R

$$

NCZ045>047-081-094-103-104-062000-
CENTRAL COAST

CITY           SKY/WX    TMP DP  RH WIND       PRES   REMARKS
FRISCO         PTSUNNY   60  51  72 SW12      29.72R
SWANQUARTER    NOT AVBL

$$

NCZ095-097-098-100-101-062000-
SOUTHERN COAST

CITY           SKY/WX    TMP DP  RH WIND       PRES   REMARKS
BEAUFORT       PTSUNNY   62  49  62 W6        29.73R
CEDAR ISLAND   NOT AVBL
JACKSONVILLE   PTSUNNY   66  49  54 W14G21    29.73S
PINEY ISLAND   MOCLDY   N/A N/A N/A W10G20    29.72
WILMINGTON     PTSUNNY   66  49  54 NW15G23   29.76S


$$

NCZ011>013-027>030-043-044-078>080-089-090>093-098-062000-
COASTAL PLAIN

CITY           SKY/WX    TMP DP  RH WIND       PRES   REMARKS
AHOSKIE        MOSUNNY   59  51  73 CALM      29.71F
CLINTON        PTSUNNY   64  51  64 NW3       29.76S
ELIZABETHTOWN  MOSUNNY   66  47  50 NW6G16    29.76S
GOLDSBORO      LGT RAIN  59  59 100 NW7       29.72S FOG
GREENVILLE     CLOUDY    61  54  77 W6        29.76R
HAVELOCK       PTSUNNY   60  50  69 SW12      29.74R
KENANSVILLE    CLOUDY    64  50  62 W10       29.75F
KINSTON        CLOUDY    63  52  67 NW6       29.74R
NEW BERN       PTSUNNY   63  50  62 W8        29.73S
RICHLANDS      LGT RAIN  58  54  86 W7        29.76R
ROCKY MOUNT    MOSUNNY   63  52  67 N10       29.72S
WASHINGTON     CLOUDY    61  50  66 W6        29.71S
WHITEVILLE     NOT AVBL

$$

AMZ130-135-150-152-154-156-158-170-250-252-270-ANZ085-086-088-633-658-670-062000-
MARINE OBSERVATIONS

STATION/POSITION TIME  TEMP    WIND        PRES    WAVE   SWELL
                       AIR SEA DIR/SP/G            HT/PER HT/PER
                 (UTC) (F)     (DEG/KT/KT) (MB)    (FT/S) (FT/S)
CHESAPEAKE LIGHT 1900   54     240/  7/  7 1006.4
64 E VA BEACH    1850   53 53  160/  6/  6 1006.0    6/ 9   7/ 9
DUCK             1900   57 59  100/  8/  9 1005.2
2 E DUCK         1811      60                N/A     4/ 8   2/11
OREGON INLET     1900   59 60  310/  9/ 12 1005.4
13E OREGON INLT  1900      57                N/A     5/ 9   5/ 9
HATTERAS CG      1900   61 65  220/  5/ 10 1005.9
DIAMOND BUOY     1850   61 75  260/ 16/ 19 1006.4    6/ 9   5/ 9
CAPE LOOKOUT     1900   62     270/ 12/ 15 1006.6
BEAUFORT LAB     1900   64 66  270/  4/  8 1006.0
30 SE NEW RVR IN 1825      72                N/A     4/ 7
27 SE WRIGHTSVLE 1908   63 72  300/ 12/ 17 1007.8
5 SE WRIGHTSVLE  1808   62 69  320/  8/ 16 1008.3
225 S CAPE HAT   1850   68 73  270/ 10/ 16 1008.7    8/ 8   8/ 8
41 SE CHARLESTON 1850   63 73  270/  8/ 14 1009.7    3/ 5   2/ 5

$$




USA.gov is the U.S. government's official web portal to all federal, state and local government web resources and services.